Regional Weather Roundup
Issued by NWS

Home | Current Version | Previous Version | Graphics & Text | Print | Product List | Glossary On
Versions: 1 2 3 4 5 6 7 8 9 10 11 12 13 14 15 16 17 18 19 20 21 22 23 24 25 26 27 28 29 30 31 32 33 34 35 36 37 38 39 40 41 42 43 44 45 46 47 48 49 50
000
ASUS43 KIND 212000
RWRIN

WEATHER ROUNDUP FOR INDIANA
NATIONAL WEATHER SERVICE INDIANAPOLIS IN
400 PM EDT MON AUG 21 2017

NOTE: "FAIR" INDICATES FEW OR NO CLOUDS BELOW 12,000 FEET WITH NO
SIGNIFICANT WEATHER AND/OR OBSTRUCTIONS TO VISIBILITY.

* - STATION DOES NOT REPORT WEATHER SUCH AS PRECIPITATION OR FOG.

+ - STATION NOT QUALITY CONTROLLED BY THE NATIONAL WEATHER SERVICE.
    USE DATA WITH CAUTION...ESPECIALLY DEWPOINT AND RELATIVE
    HUMIDITY OBSERVATIONS.

INZ001>003-010>013-019-020-212100-
NORTHWEST INDIANA

CITY           SKY/WX    TMP DP  RH WIND       PRES   REMARKS
GARY /AIRPORT/ CLOUDY    82  72  69 NE10      30.01F
MICHIGAN CITY+ CLOUDY    81  70  69 E5        30.02F
MONTICELLO +   MOSUNNY   83  70  65 CALM      30.05F
RENSSELAER +   PTSUNNY   81  68  65 SE8       30.03F

$$

LMZ046-743>745-212100-
SOUTHERN LAKE MICHIGAN

STATION/POSITION TIME  TEMP    WIND        PRES    WAVE
                       AIR SEA DIR/SP/G            HT
                 (UTC) (F)     (DEG/KT/KT) (MB)    (FT)
BURNS HARBOR     1940   79      50/  7/ 14 1016.3F
MICHIGAN CITY    1930   77      50/  9/  9   N/A
5NW MICH CITY    1950   76 76  100/  8/ 10   N/A     1

$$

INZ004-005-014>016-021>024-212100-
NORTH CENTRAL INDIANA

CITY           SKY/WX    TMP DP  RH WIND       PRES   REMARKS
GOSHEN         SUNNY     83  68  60 SW7       30.05F
PERU/GRISSOM   PTSUNNY   84  74  71 SW8       30.07F
SOUTH BEND     CLOUDY    81  72  74 W7        30.05F

$$

INZ006>009-017-018-025>027-212100-
NORTHEAST INDIANA

CITY           SKY/WX    TMP DP  RH WIND       PRES   REMARKS
FORT WAYNE     PTSUNNY   86  72  62 W9        30.06F

$$

INZ028-029-035-036-043>045-051>053-212100-
WEST CENTRAL INDIANA

CITY           SKY/WX    TMP DP  RH WIND       PRES   REMARKS
LAFAYETTE      MOSUNNY   84  70  62 VRB3      30.06F
TERRE HAUTE    TSTM      75  69  81 N9        30.09S

$$

INZ030>032-037>040-046>048-054>057-064-065-212100-
CENTRAL INDIANA

CITY           SKY/WX    TMP DP  RH WIND       PRES   REMARKS
ANDERSON       MOSUNNY   82  73  74 MISG      30.10
GREENWOOD *+   CLOUDY    83  69  62 S7        30.10R
INDIANAPOLIS   TSTM      80  66  62 NW16G26   30.10R
-EAGLE CREEK   TSTM      73  66  78 N7        30.10S
KOKOMO +       CLOUDY    84  75  74 W9        30.09F
MT COMFORT *+  CLOUDY    86  73  66 SW7       30.10F
SHELBYVILLE    TSTM      76  69  79 W8        30.10R

$$

INZ033-034-041-042-049-050-058-059-212100-
EAST CENTRAL INDIANA

CITY           SKY/WX    TMP DP  RH WIND       PRES   REMARKS
MUNCIE         CLOUDY    85  73  67 W5        30.09F
RICHMOND +     MOSUNNY   82  73  74 SW13      30.12F

$$

INZ060-061-067>069-081>083-085>088-212100-
SOUTHWEST INDIANA

CITY           SKY/WX    TMP DP  RH WIND       PRES   REMARKS
EVANSVILLE     MOSUNNY   92  70  48 S9        30.08F HX  97
HUNTINGBURG +  SUNNY     90  71  53 S7        30.10F HX  96

$$

INZ062-063-066-070>080-084-089>092-212100-
SOUTH CENTRAL AND SOUTHEAST INDIANA

CITY           SKY/WX    TMP DP  RH WIND       PRES   REMARKS
BLOOMINGTON    CLOUDY    83  67  58 S5        30.10S
MADISON *+     SUNNY     90  64  43 SW9       30.13F
SEYMOUR +      PTSUNNY   90  68  48 SW6       30.10F

$$





USA.gov is the U.S. government's official web portal to all federal, state and local government web resources and services.